Location: Buckenweiler
(49.0667°N, 10.2500°E)
Time: 10:05:34
(UTC+00:00)

Lacrosse 4 Rocket - Pass Details

Date: 18 January 2026
Orbit: 512 x 564 km, 68.0° (Epoch: 19 February)

Event Time Altitude Azimuth Distance (km) Brightness Sun altitude
Exits shadow 04:57:48 - 198° (SSW) 2,488 4.6 -20.4°
Reaches altitude 10° 04:59:37 10° 194° (SSW) 1,758 3.8 -20.1°
Maximum altitude 05:03:24 51° 118° (ESE) 661 2.0 -19.5°
Drops below altitude 10° 05:07:12 10° 42° (NE) 1,751 4.3 -18.9°
Sets 05:09:23 0° 38° (NE) 2,639 5.2 -18.6°
